Time,TemperatureF,DewpointF,PressureIn,WindDirection,WindDirectionDegrees,WindSpeedMPH,WindSpeedGustMPH,Humidity,HourlyPrecipIn,Conditions,Clouds,dailyrainin,SoftwareType,DateUTC
2013-10-11 00:00:00,59.4,43.2,0.00,North,11,3.0,6.0,55,0.00,,,0.00,Weather View 32 v70,2013-10-11 04:00:00,
2013-10-11 00:15:00,59.2,43.5,0.00,North,11,2.0,6.0,56,0.00,,,0.00,Weather View 32 v70,2013-10-11 04:15:00,
2013-10-11 00:19:00,59.2,43.5,0.00,North,11,2.0,6.0,56,0.00,,,0.00,Weather View 32 v70,2013-10-11 04:19:00,
2013-10-11 00:30:00,59.2,43.0,0.00,NNE,20,4.0,6.0,55,0.00,,,0.00,Weather View 32 v70,2013-10-11 04:30:00,
2013-10-11 00:45:00,58.8,42.2,0.00,North,0,3.0,8.0,54,0.00,,,0.00,Weather View 32 v70,2013-10-11 04:45:00,
2013-10-11 01:00:00,58.6,42.5,0.00,NNE,12,3.0,8.0,55,0.00,,,0.00,Weather View 32 v70,2013-10-11 05:00:00,
2013-10-11 01:15:00,58.5,42.8,0.00,North,9,3.0,8.0,56,0.00,,,0.00,Weather View 32 v70,2013-10-11 05:15:00,
2013-10-11 01:20:00,58.5,42.8,0.00,North,9,3.0,8.0,56,0.00,,,0.00,Weather View 32 v70,2013-10-11 05:20:00,
2013-10-11 01:30:00,58.6,43.4,0.00,NE,42,3.0,8.0,57,0.00,,,0.00,Weather View 32 v70,2013-10-11 05:30:00,
2013-10-11 01:45:00,58.6,43.9,0.00,NNE,29,5.0,6.0,58,0.00,,,0.00,Weather View 32 v70,2013-10-11 05:45:00,
2013-10-11 02:00:00,58.6,43.9,0.00,NNW,330,6.0,6.0,58,0.00,,,0.00,Weather View 32 v70,2013-10-11 06:00:00,
2013-10-11 02:15:00,58.6,43.9,0.00,NNE,17,3.0,6.0,58,0.00,,,0.00,Weather View 32 v70,2013-10-11 06:15:00,
2013-10-11 02:20:00,58.6,43.9,0.00,NNE,17,3.0,6.0,58,0.00,,,0.00,Weather View 32 v70,2013-10-11 06:20:00,
2013-10-11 02:30:00,58.6,44.3,0.00,North,8,3.0,9.0,59,0.00,,,0.00,Weather View 32 v70,2013-10-11 06:30:00,
2013-10-11 02:45:00,58.8,44.5,0.00,North,357,3.0,9.0,59,0.00,,,0.00,Weather View 32 v70,2013-10-11 06:45:00,
2013-10-11 03:00:00,58.8,44.9,0.00,North,357,3.0,9.0,60,0.00,,,0.00,Weather View 32 v70,2013-10-11 07:00:00,
2013-10-11 03:15:00,59.0,45.1,0.00,NNW,348,2.0,9.0,60,0.00,,,0.00,Weather View 32 v70,2013-10-11 07:15:00,
2013-10-11 03:21:00,59.0,45.1,0.00,NNW,348,2.0,9.0,60,0.00,,,0.00,Weather View 32 v70,2013-10-11 07:21:00,
2013-10-11 03:30:00,59.0,45.5,0.00,North,6,4.0,6.0,61,0.00,,,0.00,Weather View 32 v70,2013-10-11 07:30:00,
2013-10-11 03:45:00,59.0,45.5,0.00,North,3,3.0,6.0,61,0.00,,,0.00,Weather View 32 v70,2013-10-11 07:45:00,
2013-10-11 04:00:00,59.2,45.7,0.00,North,3,0.0,6.0,61,0.00,,,0.00,Weather View 32 v70,2013-10-11 08:00:00,
2013-10-11 04:15:00,59.2,46.1,0.00,NNE,20,3.0,6.0,62,0.00,,,0.00,Weather View 32 v70,2013-10-11 08:15:00,
2013-10-11 04:21:00,59.2,46.1,0.00,NNE,20,3.0,6.0,62,0.00,,,0.00,Weather View 32 v70,2013-10-11 08:21:00,
2013-10-11 04:30:00,59.2,46.1,0.00,North,350,3.0,5.0,62,0.00,,,0.00,Weather View 32 v70,2013-10-11 08:30:00,
2013-10-11 04:45:00,59.2,46.1,0.00,North,3,2.0,5.0,62,0.00,,,0.00,Weather View 32 v70,2013-10-11 08:45:00,
2013-10-11 05:00:00,59.2,46.1,0.00,SSW,193,3.0,5.0,62,0.00,,,0.00,Weather View 32 v70,2013-10-11 09:00:00,
2013-10-11 05:15:00,59.2,46.1,0.00,North,4,4.0,5.0,62,0.00,,,0.00,Weather View 32 v70,2013-10-11 09:15:00,
2013-10-11 05:22:00,59.2,46.1,0.00,North,4,4.0,5.0,62,0.00,,,0.00,Weather View 32 v70,2013-10-11 09:22:00,
2013-10-11 05:30:00,59.2,46.1,0.00,North,0,4.0,5.0,62,0.00,,,0.00,Weather View 32 v70,2013-10-11 09:30:00,
2013-10-11 05:45:00,59.0,46.0,0.00,North,357,4.0,6.0,62,0.00,,,0.00,Weather View 32 v70,2013-10-11 09:45:00,
2013-10-11 06:00:00,59.0,46.0,0.00,North,5,5.0,6.0,62,0.00,,,0.00,Weather View 32 v70,2013-10-11 10:00:00,
2013-10-11 06:15:00,59.0,46.4,0.00,NNE,28,4.0,6.0,63,0.00,,,0.00,Weather View 32 v70,2013-10-11 10:15:00,
2013-10-11 06:23:00,59.0,46.4,0.00,NNE,28,4.0,6.0,63,0.00,,,0.00,Weather View 32 v70,2013-10-11 10:23:00,
2013-10-11 06:30:00,58.8,47.1,0.00,North,357,3.0,6.0,65,0.00,,,0.00,Weather View 32 v70,2013-10-11 10:30:00,
2013-10-11 06:45:00,58.8,47.5,0.00,NNE,15,4.0,6.0,66,0.00,,,0.00,Weather View 32 v70,2013-10-11 10:45:00,
2013-10-11 07:00:00,58.8,47.9,0.00,NNW,334,4.0,7.0,67,0.00,,,0.00,Weather View 32 v70,2013-10-11 11:00:00,
2013-10-11 07:15:00,59.0,48.0,0.00,NNE,19,2.0,7.0,67,0.00,,,0.00,Weather View 32 v70,2013-10-11 11:15:00,
2013-10-11 07:23:00,59.0,48.0,0.00,NNE,19,2.0,7.0,67,0.00,,,0.00,Weather View 32 v70,2013-10-11 11:23:00,
2013-10-11 07:30:00,59.2,48.2,0.00,North,6,3.0,7.0,67,0.00,,,0.00,Weather View 32 v70,2013-10-11 11:30:00,
2013-10-11 07:45:00,59.4,48.4,0.00,North,9,5.0,7.0,67,0.00,,,0.00,Weather View 32 v70,2013-10-11 11:45:00,
2013-10-11 08:00:00,59.7,48.3,0.00,North,357,6.0,7.0,66,0.00,,,0.00,Weather View 32 v70,2013-10-11 12:00:00,
2013-10-11 08:15:00,60.3,48.4,0.00,NNE,14,3.0,7.0,65,0.00,,,0.00,Weather View 32 v70,2013-10-11 12:15:00,
2013-10-11 08:24:00,60.3,48.4,0.00,NNE,14,3.0,7.0,65,0.00,,,0.00,Weather View 32 v70,2013-10-11 12:24:00,
2013-10-11 08:30:00,60.3,48.4,0.00,North,0,3.0,7.0,65,0.00,,,0.00,Weather View 32 v70,2013-10-11 12:30:00,
2013-10-11 08:45:00,60.6,47.9,0.00,North,0,6.0,7.0,63,0.00,,,0.00,Weather View 32 v70,2013-10-11 12:45:00,
2013-10-11 09:00:00,60.8,47.2,0.00,North,0,4.0,9.0,61,0.00,,,0.00,Weather View 32 v70,2013-10-11 13:00:00,
2013-10-11 09:15:00,61.0,47.8,0.00,North,0,3.0,11.0,62,0.00,,,0.00,Weather View 32 v70,2013-10-11 13:15:00,
2013-10-11 09:24:00,61.0,47.8,0.00,North,0,3.0,11.0,62,0.00,,,0.00,Weather View 32 v70,2013-10-11 13:24:00,
2013-10-11 09:30:00,61.5,48.8,0.00,NNE,19,4.0,11.0,63,0.00,,,0.00,Weather View 32 v70,2013-10-11 13:30:00,
2013-10-11 09:45:00,62.1,48.9,0.00,North,2,4.0,11.0,62,0.00,,,0.00,Weather View 32 v70,2013-10-11 13:45:00,
2013-10-11 10:00:00,62.2,48.6,0.00,NNE,19,3.0,11.0,61,0.00,,,0.00,Weather View 32 v70,2013-10-11 14:00:00,
2013-10-11 10:15:00,62.8,47.3,0.00,NNW,332,4.0,10.0,57,0.00,,,0.00,Weather View 32 v70,2013-10-11 14:15:00,
2013-10-11 10:30:00,63.1,47.6,0.00,North,7,3.0,10.0,57,0.00,,,0.00,Weather View 32 v70,2013-10-11 14:30:00,
2013-10-11 10:45:00,63.9,48.3,0.00,NE,43,3.0,10.0,57,0.00,,,0.00,Weather View 32 v70,2013-10-11 14:45:00,
2013-10-11 11:00:00,63.9,48.3,0.00,NNE,14,4.0,10.0,57,0.00,,,0.00,Weather View 32 v70,2013-10-11 15:00:00,
2013-10-11 11:15:00,63.9,48.3,0.00,North,5,3.0,6.0,57,0.00,,,0.00,Weather View 32 v70,2013-10-11 15:15:00,
2013-10-11 11:30:00,64.6,49.0,0.00,North,1,5.0,6.0,57,0.00,,,0.00,Weather View 32 v70,2013-10-11 15:30:00,
2013-10-11 11:45:00,64.8,47.7,0.00,North,0,3.0,6.0,54,0.00,,,0.00,Weather View 32 v70,2013-10-11 15:45:00,
2013-10-11 12:00:00,64.8,48.2,0.00,NNW,332,3.0,6.0,55,0.00,,,0.00,Weather View 32 v70,2013-10-11 16:00:00,
2013-10-11 12:15:00,65.1,48.5,0.00,NE,44,4.0,6.0,55,0.00,,,0.00,Weather View 32 v70,2013-10-11 16:15:00,
2013-10-11 12:30:00,65.3,49.2,0.00,NE,39,3.0,6.0,56,0.00,,,0.00,Weather View 32 v70,2013-10-11 16:30:00,
2013-10-11 12:45:00,65.1,48.5,0.00,NNW,331,4.0,8.0,55,0.00,,,0.00,Weather View 32 v70,2013-10-11 16:45:00,
2013-10-11 13:00:00,64.8,48.7,0.00,North,357,4.0,8.0,56,0.00,,,0.00,Weather View 32 v70,2013-10-11 17:00:00,
2013-10-11 13:15:00,64.6,49.4,0.00,NNW,340,5.0,8.0,58,0.00,,,0.00,Weather View 32 v70,2013-10-11 17:15:00,
2013-10-11 13:30:00,64.8,49.6,0.00,NNE,17,3.0,8.0,58,0.00,,,0.00,Weather View 32 v70,2013-10-11 17:30:00,
2013-10-11 13:45:00,64.8,49.1,0.00,NNE,18,4.0,8.0,57,0.00,,,0.00,Weather View 32 v70,2013-10-11 17:45:00,
2013-10-11 14:00:00,64.4,50.2,0.00,NNW,346,3.0,8.0,60,0.00,,,0.00,Weather View 32 v70,2013-10-11 18:00:00,
2013-10-11 14:15:00,64.4,51.5,0.00,North,6,4.0,8.0,63,0.00,,,0.00,Weather View 32 v70,2013-10-11 18:15:00,
2013-10-11 14:30:00,64.4,51.9,0.00,NNW,343,3.0,8.0,64,0.00,,,0.00,Weather View 32 v70,2013-10-11 18:30:00,
2013-10-11 14:45:00,64.9,52.9,0.00,North,9,3.0,8.0,65,0.00,,,0.00,Weather View 32 v70,2013-10-11 18:45:00,
2013-10-11 15:00:00,65.5,53.8,0.00,North,6,4.0,8.0,66,0.00,,,0.00,Weather View 32 v70,2013-10-11 19:00:00,
2013-10-11 15:15:00,65.8,53.7,0.00,North,11,3.0,8.0,65,0.00,,,0.00,Weather View 32 v70,2013-10-11 19:15:00,
2013-10-11 15:30:00,65.8,53.7,0.00,North,353,4.0,6.0,65,0.00,,,0.00,Weather View 32 v70,2013-10-11 19:30:00,
2013-10-11 15:45:00,65.7,53.1,0.00,NNE,13,3.0,6.0,64,0.00,,,0.00,Weather View 32 v70,2013-10-11 19:45:00,
2013-10-11 16:00:00,65.7,53.5,0.00,North,1,0.0,6.0,65,0.00,,,0.00,Weather View 32 v70,2013-10-11 20:00:00,
2013-10-11 16:15:00,65.7,53.1,0.00,North,357,3.0,6.0,64,0.00,,,0.00,Weather View 32 v70,2013-10-11 20:15:00,
2013-10-11 16:30:00,65.7,53.1,0.00,NNE,16,4.0,6.0,64,0.00,,,0.00,Weather View 32 v70,2013-10-11 20:30:00,
2013-10-11 16:45:00,65.7,53.1,0.00,North,6,3.0,6.0,64,0.00,,,0.00,Weather View 32 v70,2013-10-11 20:45:00,
2013-10-11 17:00:00,65.7,52.2,0.00,NNW,330,2.0,6.0,62,0.00,,,0.00,Weather View 32 v70,2013-10-11 21:00:00,
2013-10-11 17:15:00,65.7,52.2,0.00,North,8,3.0,6.0,62,0.00,,,0.00,Weather View 32 v70,2013-10-11 21:15:00,
2013-10-11 17:30:00,65.5,52.5,0.00,North,10,3.0,6.0,63,0.00,,,0.00,Weather View 32 v70,2013-10-11 21:30:00,
2013-10-11 17:45:00,65.3,51.9,0.00,North,1,3.0,6.0,62,0.00,,,0.00,Weather View 32 v70,2013-10-11 21:45:00,